Weather History for KAUW - August, 2012

Change the Weather History Date:

Monday, August 13, 2012

  Actual Average Record
Temperature  
Mean Temperature 71 °F 68 °F  
Max Temperature 81 °F 78 °F 96 °F (1944)
Min Temperature 61 °F 58 °F 42 °F (1916)
Degree Days  
Heating Degree Days 0 1  
Month to date heating degree days 6 13  
Since 1 June heating degree days 47 125  
Since 1 July heating degree days 6 36  
Cooling Degree Days 6 4  
Month to date cooling degree days 58 58  
Year to date cooling degree days 595 318  
Since 1 June cooling degree days 552 299  
Growing Degree Days 20 (Base 50)    
Moisture  
Dew Point 55 °F    
Average Humidity 61    
Maximum Humidity 90    
Minimum Humidity 32    
Precipitation  
Precipitation 0.00 in 0.13 in 1.94 in (1940)
Month to date precipitation 2.00 1.79  
Year to date precipitation 18.77 19.84  
Snow  
Snow 0.00 in 0.00 in 0.00 in ()
Month to date snowfall 0.0 0.0  
Since 1 June snowfall 0.0 0.0  
Since 1 July snowfall 0.0 0.0  
Snow Depth 0.00 in    
Sea Level Pressure  
Sea Level Pressure 29.95 in    
Wind  
Wind Speed 5 mph (WNW)    
Max Wind Speed 9 mph    
Max Gust Speed -    
Visibility 10 miles    
Events      
T = Trace of Precipitation, MM = Missing Value Source: NWS Daily Summary

Daily Weather History Graph

Daily Weather History Graph

Search for Another Location

Airport or City:

Trip Planner

Search our weather history database for the weather conditions in past years. The results will help you decide how hot, cold, wet, or windy it might be!

Date:

Astronomy

Aug. 13, 2012 Rise Set
Actual Time 5:58 AM CDT 8:07 PM CDT
Civil Twilight 5:26 AM CDT 8:39 PM CDT
Nautical Twilight 4:46 AM CDT 9:18 PM CDT
Astronomical Twilight 4:02 AM CDT 10:02 PM CDT
Moon 1:56 AM CDT (8/13) 5:23 PM CDT (8/13)
Length of Visible Light 15h 12m
Length of Day
14h 08m
Waning Crescent, 16% of the Moon is Illuminated
Aug 13
Waning Crescent
Aug 17
New
Aug 24
First Quarter
Aug 31
Full
Sep 8
Last Quarter

Hourly Weather History & Observations

Time (CDT) Temp. Dew Point Humidity Pressure Visibility Wind Dir Wind Speed Gust Speed Precip Events Conditions
12:54 AM 64.0 °F 57.0 °F 78% 29.97 in 10.0 mi WNW 4.6 mph - N/A   Mostly Cloudy
1:54 AM 63.0 °F 57.0 °F 81% 29.96 in 10.0 mi WNW 3.5 mph - N/A   Mostly Cloudy
2:54 AM 63.0 °F 57.0 °F 81% 29.96 in 10.0 mi WNW 4.6 mph - N/A   Overcast
3:54 AM 63.0 °F 55.9 °F 78% 29.96 in 10.0 mi NNW 3.5 mph - N/A   Mostly Cloudy
4:54 AM 62.1 °F 55.9 °F 80% 29.96 in 10.0 mi West 3.5 mph - N/A   Mostly Cloudy
5:54 AM 61.0 °F 55.9 °F 83% 29.97 in 10.0 mi Calm Calm - N/A   Overcast
6:54 AM 62.1 °F 55.0 °F 78% 29.98 in 10.0 mi WSW 4.6 mph - N/A   Overcast
7:54 AM 64.0 °F 55.9 °F 75% 29.99 in 10.0 mi WNW 5.8 mph - N/A   Overcast
8:54 AM 64.0 °F 55.9 °F 75% 29.99 in 10.0 mi NE 5.8 mph - N/A   Overcast
9:54 AM 66.9 °F 57.0 °F 70% 29.98 in 10.0 mi SW 4.6 mph - N/A   Clear
10:54 AM 73.0 °F 57.0 °F 57% 29.96 in 10.0 mi Variable 3.5 mph - N/A   Clear
11:54 AM 75.9 °F 54.0 °F 46% 29.96 in 10.0 mi West 5.8 mph - N/A   Clear
12:54 PM 77.0 °F 50.0 °F 39% 29.94 in 10.0 mi Variable 5.8 mph - N/A   Clear
1:54 PM 79.0 °F 48.0 °F 34% 29.93 in 10.0 mi SSW 4.6 mph - N/A   Clear
2:54 PM 79.0 °F 46.9 °F 32% 29.92 in 10.0 mi Variable 3.5 mph - N/A   Scattered Clouds
3:54 PM 79.0 °F 50.0 °F 36% 29.91 in 10.0 mi WSW 5.8 mph - N/A   Scattered Clouds
4:54 PM 75.0 °F 55.0 °F 50% 29.91 in 10.0 mi NW 9.2 mph - N/A   Mostly Cloudy
5:54 PM 78.1 °F 55.9 °F 46% 29.92 in 10.0 mi NW 8.1 mph - N/A   Scattered Clouds
6:54 PM 73.9 °F 54.0 °F 50% 29.92 in 10.0 mi WNW 8.1 mph - N/A   Clear
7:54 PM 72.0 °F 55.0 °F 55% 29.94 in 10.0 mi NW 4.6 mph - N/A   Clear
8:38 PM 69.8 °F 55.4 °F 60% 29.94 in 10.0 mi NW 3.5 mph - N/A   Partly Cloudy
8:54 PM 68.0 °F 57.9 °F 70% 29.95 in 10.0 mi Calm Calm - N/A   Scattered Clouds
9:54 PM 64.9 °F 57.9 °F 78% 29.96 in 10.0 mi West 3.5 mph - N/A   Partly Cloudy
10:54 PM 64.9 °F 59.0 °F 81% 29.95 in 10.0 mi NW 4.6 mph - N/A   Clear
11:54 PM 63.0 °F 59.0 °F 87% 29.95 in 10.0 mi NNW 3.5 mph - N/A   Partly Cloudy